CEB987 RPLL-RPSP

Flight info

Callsign CEB987
Flight time 1h 12m
Altitude 34000
Route IPATA2P IPATA W25 BATAY BATAY1P
Aircraft A20N/M-SDE2E3FGHIRWXY/LB1

Departure

Time 2026-04-16 12:30
Airport Ninoy Aquino International Airport (RPLL)

Arrival

Time 2026-04-16 13:43
Airport Bohol-Panglao International Airport (RPSP)
Time Latitude Longitude Altitude Speed Heading
2026-04-16 12:08 14.52241 121.00949 69 ft 0 kts 45°
2026-04-16 12:20 14.52230 121.00938 59 ft 2 kts 46°
2026-04-16 12:20 14.52218 121.00925 59 ft 2 kts 46°
2026-04-16 12:21 14.52207 121.00913 60 ft 2 kts 46°
2026-04-16 12:21 14.52196 121.00901 59 ft 2 kts 47°
2026-04-16 12:21 14.52185 121.00888 61 ft 2 kts 50°
2026-04-16 12:21 14.52178 121.00879 62 ft 2 kts 54°
2026-04-16 12:22 14.52169 121.00864 65 ft 2 kts 81°
2026-04-16 12:22 14.52173 121.00850 59 ft 1 kts 135°
2026-04-16 12:23 14.52161 121.00863 65 ft 6 kts 135°
2026-04-16 12:23 14.52134 121.00890 64 ft 10 kts 135°
2026-04-16 12:23 14.52077 121.00949 69 ft 16 kts 134°
2026-04-16 12:24 14.52043 121.00985 65 ft 18 kts 134°
2026-04-16 12:24 14.51942 121.01088 66 ft 23 kts 135°
2026-04-16 12:24 14.51820 121.01215 65 ft 27 kts 135°
2026-04-16 12:24 14.51680 121.01360 59 ft 30 kts 135°
2026-04-16 12:25 14.51526 121.01518 65 ft 30 kts 135°
2026-04-16 12:25 14.51451 121.01590 68 ft 9 kts 155°
2026-04-16 12:25 14.51412 121.01572 65 ft 8 kts 212°
2026-04-16 12:25 14.51358 121.01587 62 ft 10 kts 138°
2026-04-16 12:26 14.51293 121.01654 65 ft 16 kts 135°
2026-04-16 12:26 14.51201 121.01748 67 ft 21 kts 135°
2026-04-16 12:26 14.51088 121.01863 67 ft 24 kts 130°
2026-04-16 12:26 14.51004 121.01952 63 ft 0 kts 134°
2026-04-16 12:27 14.51003 121.01960 66 ft 2 kts 98°
2026-04-16 12:27 14.51011 121.01975 69 ft 1 kts 20°
2026-04-16 12:27 14.51042 121.01985 69 ft 6 kts 36°
2026-04-16 12:27 14.51072 121.02043 64 ft 12 kts 63°
2026-04-16 12:28 14.51123 121.02138 67 ft 18 kts 59°
2026-04-16 12:28 14.51195 121.02267 69 ft 23 kts 59°
2026-04-16 12:28 14.51286 121.02427 67 ft 28 kts 59°
2026-04-16 12:28 14.51390 121.02617 63 ft 33 kts 60°
2026-04-16 12:29 14.51495 121.02805 66 ft 20 kts 71°
2026-04-16 12:29 14.51473 121.02854 62 ft 7 kts 152°
2026-04-16 12:29 14.51408 121.02874 63 ft 12 kts 186°
2026-04-16 12:29 14.51347 121.02819 64 ft 2 kts 243°
2026-04-16 12:30 14.51338 121.02801 65 ft 13 kts 241°
2026-04-16 12:30 14.51128 121.02422 67 ft 106 kts 240°
2026-04-16 12:30 14.50642 121.01548 85 ft 170 kts 240°
2026-04-16 12:30 14.50049 121.00475 880 ft 172 kts 239°
2026-04-16 12:31 14.49892 121.00185 1104 ft 174 kts 239°
2026-04-16 12:31 14.49683 120.99802 1413 ft 174 kts 239°
2026-04-16 12:32 14.49248 120.99016 2133 ft 174 kts 238°
2026-04-16 12:32 14.48607 120.97876 2757 ft 193 kts 238°
2026-04-16 12:32 14.47896 120.96616 3285 ft 212 kts 238°
2026-04-16 12:33 14.47482 120.95878 3534 ft 223 kts 238°
2026-04-16 12:33 14.47442 120.95807 3559 ft 224 kts 238°
2026-04-16 12:33 14.46794 120.94649 3939 ft 243 kts 239°
2026-04-16 12:33 14.46171 120.93532 4562 ft 250 kts 239°
2026-04-16 12:34 14.45286 120.91941 5433 ft 265 kts 239°
2026-04-16 12:34 14.44066 120.90439 6376 ft 280 kts 216°
2026-04-16 12:34 14.42291 120.89612 7578 ft 284 kts 189°
2026-04-16 12:34 14.40325 120.89656 8791 ft 286 kts 164°
2026-04-16 12:35 14.38498 120.90494 9949 ft 291 kts 149°
2026-04-16 12:35 14.36713 120.91564 10404 ft 299 kts 148°
2026-04-16 12:35 14.36088 120.91952 10446 ft 297 kts 147°
2026-04-16 12:36 14.34710 120.92808 10525 ft 297 kts 147°
2026-04-16 12:36 14.32977 120.93870 10646 ft 298 kts 148°
2026-04-16 12:36 14.31188 120.94959 10751 ft 298 kts 144°
2026-04-16 12:37 14.29722 120.96435 10862 ft 296 kts 122°
2026-04-16 12:37 14.28943 120.98381 10982 ft 295 kts 99°
2026-04-16 12:37 14.28989 121.00485 11154 ft 297 kts 76°
2026-04-16 12:37 14.29832 121.02438 11750 ft 304 kts 61°
2026-04-16 12:38 14.30645 121.03961 12196 ft 323 kts 61°
2026-04-16 12:38 14.31759 121.06070 12714 ft 345 kts 62°
2026-04-16 12:38 14.32914 121.08271 13620 ft 351 kts 62°
2026-04-16 12:38 14.34080 121.10496 14532 ft 356 kts 62°
2026-04-16 12:39 14.35265 121.12758 15395 ft 361 kts 61°
2026-04-16 12:39 14.36468 121.15057 16234 ft 367 kts 61°
2026-04-16 12:39 14.37676 121.17364 17065 ft 373 kts 61°
2026-04-16 12:39 14.38707 121.19833 17872 ft 379 kts 74°
2026-04-16 12:40 14.39041 121.22545 18611 ft 386 kts 90°
2026-04-16 12:40 14.38588 121.25293 19325 ft 393 kts 107°
2026-04-16 12:40 14.37375 121.27832 20054 ft 399 kts 123°
2026-04-16 12:40 14.35676 121.30112 20779 ft 404 kts 128°
2026-04-16 12:41 14.33898 121.32376 21494 ft 408 kts 128°
2026-04-16 12:41 14.32099 121.34658 22197 ft 412 kts 128°
2026-04-16 12:42 14.26636 121.41691 24123 ft 425 kts 128°
2026-04-16 12:42 14.24788 121.44089 24685 ft 429 kts 128°
2026-04-16 12:42 14.22923 121.46509 25233 ft 433 kts 128°
2026-04-16 12:42 14.21042 121.48951 25765 ft 437 kts 128°
2026-04-16 12:43 14.19145 121.51412 26300 ft 440 kts 128°
2026-04-16 12:43 14.17230 121.53894 26826 ft 444 kts 128°
2026-04-16 12:43 14.15301 121.56394 27333 ft 448 kts 129°
2026-04-16 12:43 14.13356 121.58914 27828 ft 451 kts 129°
2026-04-16 12:44 14.11389 121.61446 28325 ft 454 kts 130°
2026-04-16 12:44 14.09220 121.63829 28788 ft 457 kts 137°
2026-04-16 12:44 14.06789 121.65957 29243 ft 460 kts 143°
2026-04-16 12:44 14.04202 121.67914 29712 ft 464 kts 144°
2026-04-16 12:45 14.01598 121.69892 30148 ft 467 kts 144°
2026-04-16 12:45 13.98975 121.71891 30515 ft 471 kts 143°
2026-04-16 12:45 13.96336 121.73904 30920 ft 474 kts 143°
2026-04-16 12:45 13.93681 121.75928 31373 ft 475 kts 143°
2026-04-16 12:46 13.91022 121.77955 31900 ft 475 kts 143°
2026-04-16 12:46 13.88371 121.79975 32441 ft 474 kts 143°
2026-04-16 12:46 13.85718 121.81995 32961 ft 474 kts 143°
2026-04-16 12:46 13.83064 121.84004 33472 ft 474 kts 143°
2026-04-16 12:47 13.80439 121.85983 33685 ft 473 kts 143°
2026-04-16 12:47 13.77789 121.87980 33791 ft 472 kts 143°
2026-04-16 12:47 13.75143 121.89975 33894 ft 472 kts 143°
2026-04-16 12:47 13.72461 121.91998 33938 ft 471 kts 143°
2026-04-16 12:48 13.67214 121.95953 33935 ft 470 kts 143°
2026-04-16 12:48 13.61944 121.99926 33930 ft 470 kts 143°
2026-04-16 12:49 13.56675 122.03894 33931 ft 469 kts 143°
2026-04-16 12:49 13.51416 122.07853 33930 ft 468 kts 144°
2026-04-16 12:50 13.46158 122.11809 33929 ft 468 kts 144°
2026-04-16 12:50 13.40907 122.15758 33920 ft 467 kts 144°
2026-04-16 12:51 13.35665 122.19697 33921 ft 467 kts 144°
2026-04-16 12:51 13.30424 122.23633 33926 ft 467 kts 144°
2026-04-16 12:52 13.25217 122.27543 33918 ft 467 kts 144°
2026-04-16 12:52 13.19971 122.31479 33923 ft 467 kts 144°
2026-04-16 12:53 13.14717 122.35419 33927 ft 467 kts 144°
2026-04-16 12:53 13.09465 122.39355 33924 ft 468 kts 144°
2026-04-16 12:54 13.04204 122.43296 33923 ft 468 kts 144°
2026-04-16 12:54 12.98947 122.47232 33929 ft 468 kts 144°
2026-04-16 12:55 12.93685 122.51169 33933 ft 469 kts 144°
2026-04-16 12:55 12.88413 122.55112 33939 ft 469 kts 144°
2026-04-16 12:56 12.83144 122.59051 33923 ft 467 kts 144°
2026-04-16 12:56 12.77938 122.62940 33925 ft 466 kts 144°
2026-04-16 12:57 12.72699 122.66851 33925 ft 466 kts 144°
2026-04-16 12:57 12.67469 122.70755 33926 ft 465 kts 144°
2026-04-16 12:58 12.62237 122.74657 33929 ft 465 kts 144°
2026-04-16 12:58 12.57010 122.78554 33937 ft 465 kts 144°
2026-04-16 12:59 12.51787 122.82446 33926 ft 464 kts 144°
2026-04-16 13:00 12.43951 122.88281 33929 ft 464 kts 144°
2026-04-16 13:00 12.38735 122.92163 33926 ft 463 kts 144°
2026-04-16 13:01 12.33557 122.96015 33924 ft 463 kts 144°
2026-04-16 13:01 12.28316 122.99911 33927 ft 462 kts 144°
2026-04-16 13:02 12.23154 123.03745 33930 ft 462 kts 144°
2026-04-16 13:02 12.17958 123.07604 33923 ft 461 kts 144°
2026-04-16 13:03 12.12770 123.11455 33920 ft 460 kts 144°
2026-04-16 13:03 12.07589 123.15299 33922 ft 460 kts 144°
2026-04-16 13:04 12.02486 123.19082 33919 ft 460 kts 144°
2026-04-16 13:04 11.97302 123.22925 33921 ft 461 kts 144°
2026-04-16 13:05 11.92110 123.26771 33921 ft 461 kts 144°
2026-04-16 13:05 11.86918 123.30616 33929 ft 461 kts 144°
2026-04-16 13:06 11.81718 123.34464 33926 ft 462 kts 144°
2026-04-16 13:06 11.76514 123.38314 33928 ft 462 kts 144°
2026-04-16 13:07 11.71302 123.42167 33928 ft 463 kts 144°
2026-04-16 13:07 11.66091 123.46019 33920 ft 461 kts 144°
2026-04-16 13:08 11.60899 123.49854 33917 ft 461 kts 144°
2026-04-16 13:08 11.55700 123.53693 33915 ft 461 kts 144°
2026-04-16 13:09 11.50504 123.57528 33913 ft 461 kts 144°
2026-04-16 13:09 11.45309 123.61360 33914 ft 461 kts 144°
2026-04-16 13:10 11.40108 123.65195 33912 ft 461 kts 144°
2026-04-16 13:10 11.34907 123.69028 33919 ft 461 kts 144°
2026-04-16 13:11 11.30579 123.72216 33913 ft 461 kts 144°
2026-04-16 13:11 11.25376 123.76048 33906 ft 461 kts 144°
2026-04-16 13:12 11.20174 123.79876 33915 ft 461 kts 144°
2026-04-16 13:12 11.14633 123.83020 33911 ft 460 kts 161°
2026-04-16 13:12 11.11525 123.83784 33907 ft 460 kts 172°
2026-04-16 13:13 11.08328 123.83958 33769 ft 461 kts 182°
2026-04-16 13:13 11.05134 123.83659 33515 ft 461 kts 186°
2026-04-16 13:13 11.01944 123.83323 33261 ft 462 kts 186°
2026-04-16 13:13 10.98739 123.82991 33010 ft 463 kts 186°
2026-04-16 13:14 10.95536 123.82663 32769 ft 464 kts 186°
2026-04-16 13:14 10.92318 123.82336 32513 ft 465 kts 186°
2026-04-16 13:14 10.89099 123.82009 32268 ft 465 kts 186°
2026-04-16 13:14 10.85874 123.81682 32027 ft 466 kts 186°
2026-04-16 13:15 10.84783 123.81572 31933 ft 467 kts 186°
2026-04-16 13:15 10.79392 123.81025 30724 ft 471 kts 186°
2026-04-16 13:15 10.76111 123.80693 29727 ft 474 kts 186°
2026-04-16 13:15 10.72854 123.80363 29043 ft 466 kts 186°
2026-04-16 13:16 10.69654 123.80038 28309 ft 459 kts 186°
2026-04-16 13:16 10.66499 123.79718 27582 ft 453 kts 186°
2026-04-16 13:16 10.63384 123.79403 26859 ft 447 kts 185°
2026-04-16 13:16 10.60361 123.79096 26135 ft 443 kts 185°
2026-04-16 13:17 10.57390 123.78795 25417 ft 439 kts 185°
2026-04-16 13:17 10.54367 123.78490 24714 ft 435 kts 185°
2026-04-16 13:17 10.51375 123.78187 24013 ft 431 kts 185°
2026-04-16 13:17 10.48401 123.77886 23275 ft 428 kts 185°
2026-04-16 13:18 10.45457 123.77588 22572 ft 422 kts 185°
2026-04-16 13:18 10.42558 123.77295 21877 ft 416 kts 185°
2026-04-16 13:18 10.39692 123.77006 21167 ft 412 kts 185°
2026-04-16 13:18 10.36852 123.76720 20449 ft 409 kts 185°
2026-04-16 13:19 10.34035 123.76436 19763 ft 405 kts 185°
2026-04-16 13:19 10.31241 123.76154 19076 ft 402 kts 185°
2026-04-16 13:19 10.28464 123.75873 18383 ft 401 kts 185°
2026-04-16 13:19 10.25693 123.75593 17630 ft 399 kts 185°
2026-04-16 13:20 10.22957 123.75318 17000 ft 393 kts 185°
2026-04-16 13:20 10.20288 123.75049 16311 ft 390 kts 185°
2026-04-16 13:20 10.17605 123.74778 15636 ft 386 kts 185°
2026-04-16 13:20 10.14940 123.74509 14938 ft 384 kts 185°
2026-04-16 13:21 10.12303 123.74243 14281 ft 381 kts 185°
2026-04-16 13:21 10.09675 123.73978 13620 ft 378 kts 185°
2026-04-16 13:21 10.07072 123.73715 12964 ft 373 kts 185°
2026-04-16 13:21 10.04502 123.73456 12320 ft 368 kts 185°
2026-04-16 13:22 10.01979 123.73201 11740 ft 361 kts 185°
2026-04-16 13:22 9.99484 123.72949 11119 ft 357 kts 185°
2026-04-16 13:22 9.97016 123.72700 10480 ft 354 kts 185°
2026-04-16 13:22 9.94597 123.72456 10108 ft 342 kts 185°
2026-04-16 13:23 9.92288 123.72223 9951 ft 325 kts 184°
2026-04-16 13:23 9.90104 123.72002 9824 ft 308 kts 184°
2026-04-16 13:23 9.88013 123.71791 9530 ft 297 kts 184°
2026-04-16 13:23 9.85969 123.71587 9106 ft 293 kts 184°
2026-04-16 13:24 9.83946 123.71385 8685 ft 290 kts 185°
2026-04-16 13:24 9.81951 123.71186 8264 ft 286 kts 185°
2026-04-16 13:24 9.79972 123.70988 7749 ft 287 kts 185°
2026-04-16 13:24 9.78004 123.70790 7436 ft 281 kts 185°
2026-04-16 13:25 9.76065 123.70595 7029 ft 279 kts 185°
2026-04-16 13:25 9.74162 123.70404 6621 ft 278 kts 185°
2026-04-16 13:25 9.72222 123.70210 6204 ft 276 kts 185°
2026-04-16 13:25 9.70306 123.70018 5674 ft 279 kts 185°
2026-04-16 13:26 9.68404 123.69827 5312 ft 276 kts 186°
2026-04-16 13:26 9.66475 123.69632 4958 ft 275 kts 186°
2026-04-16 13:26 9.64602 123.69444 4546 ft 274 kts 186°
2026-04-16 13:26 9.62712 123.69253 4101 ft 273 kts 185°
2026-04-16 13:27 9.60813 123.69061 3690 ft 272 kts 185°
2026-04-16 13:27 9.58936 123.68871 3307 ft 270 kts 185°
2026-04-16 13:27 9.57070 123.68683 2941 ft 267 kts 185°
2026-04-16 13:27 9.55228 123.68498 2830 ft 266 kts 185°
2026-04-16 13:28 9.53423 123.68317 2732 ft 255 kts 185°
2026-04-16 13:28 9.51701 123.68144 2669 ft 242 kts 185°
2026-04-16 13:28 9.50069 123.67980 2665 ft 229 kts 185°
2026-04-16 13:28 9.48535 123.67849 2667 ft 214 kts 184°
2026-04-16 13:29 9.47101 123.67807 2654 ft 199 kts 168°
2026-04-16 13:29 9.45945 123.68436 2579 ft 185 kts 128°
2026-04-16 13:29 9.45504 123.69556 2567 ft 164 kts 87°
2026-04-16 13:29 9.45903 123.70525 2471 ft 145 kts 40°
2026-04-16 13:30 9.46760 123.70949 2375 ft 134 kts 18°
2026-04-16 13:30 9.47610 123.71289 2165 ft 128 kts 24°
2026-04-16 13:30 9.48370 123.71679 1975 ft 119 kts 27°
2026-04-16 13:30 9.49089 123.72094 1982 ft 121 kts 29°
2026-04-16 13:31 9.49831 123.72537 1960 ft 125 kts 30°
2026-04-16 13:31 9.50568 123.72981 1835 ft 123 kts 30°
2026-04-16 13:31 9.51309 123.73427 1584 ft 125 kts 30°
2026-04-16 13:31 9.52056 123.73874 1261 ft 126 kts 30°
2026-04-16 13:32 9.52806 123.74322 979 ft 124 kts 30°
2026-04-16 13:32 9.53543 123.74761 724 ft 123 kts 30°
2026-04-16 13:32 9.54286 123.75203 498 ft 125 kts 30°
2026-04-16 13:32 9.55035 123.75650 360 ft 125 kts 30°
2026-04-16 13:33 9.55785 123.76106 202 ft 126 kts 29°
2026-04-16 13:33 9.56533 123.76552 93 ft 125 kts 30°
2026-04-16 13:33 9.57255 123.76985 87 ft 112 kts 28°
2026-04-16 13:33 9.58020 123.77439 649 ft 132 kts 31°
2026-04-16 13:34 9.58874 123.77977 1330 ft 164 kts 35°
2026-04-16 13:34 9.59644 123.79068 1622 ft 220 kts 71°
2026-04-16 13:34 9.59678 123.80710 2227 ft 234 kts 103°
2026-04-16 13:34 9.58920 123.82140 2394 ft 234 kts 134°
2026-04-16 13:35 9.57526 123.82963 2514 ft 234 kts 165°
2026-04-16 13:35 9.55917 123.83141 2633 ft 233 kts 180°
2026-04-16 13:35 9.54306 123.83051 2734 ft 231 kts 185°
2026-04-16 13:35 9.52708 123.82897 2834 ft 230 kts 185°
2026-04-16 13:36 9.51119 123.82755 2945 ft 229 kts 184°
2026-04-16 13:36 9.49521 123.82623 2971 ft 232 kts 189°
2026-04-16 13:36 9.48045 123.81984 2981 ft 234 kts 217°
2026-04-16 13:36 9.46807 123.80896 2976 ft 237 kts 224°
2026-04-16 13:37 9.45604 123.79737 2972 ft 240 kts 224°
2026-04-16 13:37 9.44391 123.78562 2982 ft 242 kts 224°
2026-04-16 13:37 9.43169 123.77380 2979 ft 243 kts 224°
2026-04-16 13:37 9.41943 123.76193 2969 ft 244 kts 224°
2026-04-16 13:38 9.40762 123.74960 2965 ft 243 kts 236°
2026-04-16 13:38 9.40195 123.73388 2966 ft 237 kts 268°
2026-04-16 13:38 9.40499 123.71798 2974 ft 230 kts 298°
2026-04-16 13:38 9.41498 123.70610 2972 ft 224 kts 327°
2026-04-16 13:39 9.42928 123.70040 2895 ft 223 kts 354°
2026-04-16 13:39 9.44444 123.70220 2778 ft 222 kts 19°
2026-04-16 13:39 9.45868 123.70707 2655 ft 211 kts 19°
2026-04-16 13:39 9.47188 123.71151 2568 ft 188 kts 19°
2026-04-16 13:40 9.48306 123.71657 2424 ft 167 kts 31°
2026-04-16 13:40 9.49229 123.72222 2321 ft 141 kts 31°
2026-04-16 13:40 9.50030 123.72698 2092 ft 127 kts 30°
2026-04-16 13:40 9.50752 123.73122 1924 ft 116 kts 30°
2026-04-16 13:41 9.51408 123.73508 1766 ft 110 kts 29°
2026-04-16 13:41 9.52087 123.73905 1479 ft 114 kts 30°
2026-04-16 13:41 9.52785 123.74306 1207 ft 116 kts 29°
2026-04-16 13:41 9.53529 123.74723 985 ft 124 kts 29°
2026-04-16 13:42 9.54264 123.75178 761 ft 124 kts 31°
2026-04-16 13:42 9.55007 123.75646 481 ft 127 kts 30°
2026-04-16 13:42 9.55766 123.76097 238 ft 127 kts 30°
2026-04-16 13:42 9.56508 123.76541 69 ft 120 kts 31°
2026-04-16 13:43 9.57119 123.76903 49 ft 65 kts 29°
2026-04-16 13:43 9.57324 123.77025 52 ft 25 kts 30°
2026-04-16 13:43 9.57368 123.77075 54 ft 5 kts 95°
2026-04-16 13:43 9.57340 123.77129 51 ft 12 kts 121°
2026-04-16 13:44 9.57285 123.77224 51 ft 13 kts 120°
2026-04-16 13:44 9.57238 123.77251 47 ft 8 kts 197°
2026-04-16 13:44 9.57167 123.77210 48 ft 16 kts 209°
2026-04-16 13:44 9.57067 123.77150 50 ft 10 kts 211°
2026-04-16 13:45 9.57034 123.77130 47 ft 3 kts 210°
2026-04-16 13:45 9.56998 123.77108 50 ft 9 kts 210°
2026-04-16 13:45 9.56930 123.77068 49 ft 0 kts 210°
2026-04-16 13:45 9.56907 123.77058 49 ft 6 kts 187°
2026-04-16 13:46 9.56896 123.77070 47 ft 3 kts 123°
2026-04-16 13:46 9.56882 123.77093 48 ft 5 kts 122°
2026-04-16 13:46 9.56865 123.77121 48 ft 4 kts 121°
2026-04-16 13:46 9.56855 123.77138 47 ft 3 kts 121°
2026-04-16 13:47 9.56852 123.77142 47 ft 0 kts 121°